Date String (YYYY-MM-DD hh:mm:ss) UTC,Instrument flags,absolute air pressure of the measurement (hPa),sample flow rate (lpm),inlet stack bypass flow (lpm),air temperature of the measurement (°C),ambient temperature measured by the external sensor (°C),aerosol sample conditioner tube jacket temperature (°C),OPC LED temperature (°C),internal box temperature (°C),relative humidity of the measurement (%),span deviation,mass concentration of particles derived from Lorenz-Mie calculation of OPC scattering (μg/m³),mass concentration of particles derived from Lorenz-Mie calculation of OPC scattering (μg/m³),mass concentration of particles derived from Lorenz-Mie calculation of OPC scattering (μg/m³)
DateTimeUTC,F1_M11,P_M11,Q1_M11,Q2_M11,T1_M11,T2_M11,T3_M11,T4_M11,T5_M11,U1_M11,ZSPAN_M11,X0_M11,X2_M11,X1_M11
2023-08-10 22:00:00,SystemResetWarning,0829.0,4.99,000.00,028.9,027.1,000.0,037.3,030.7,19.9,0000.0,0008.17,0005.19,0004.70
2023-08-10 22:01:00,SystemResetWarning,0828.9,5.00,000.00,029.0,027.4,000.0,037.3,030.7,20.0,0000.0,0008.41,0005.21,0004.71
2023-08-10 22:02:00,SystemResetWarning,0828.7,5.00,000.00,029.0,027.6,000.0,037.3,030.8,19.7,0000.0,0009.13,0005.16,0004.70
2023-08-10 22:03:00,SystemResetWarning,0828.9,5.00,000.00,029.0,027.8,000.0,037.4,030.8,19.3,0000.0,0009.70,0005.15,0004.69
2023-08-10 22:04:00,SystemResetWarning,0828.9,5.00,000.00,029.1,027.7,000.0,037.4,030.9,19.4,0000.0,0010.00,0005.16,0004.69
2023-08-10 22:05:00,SystemResetWarning,0828.9,4.99,000.00,029.1,026.1,000.0,037.3,030.6,19.4,0000.0,0009.94,0005.14,0004.68
2023-08-10 22:06:00,SystemResetWarning,0828.8,5.02,000.00,029.0,024.9,000.0,037.2,030.3,19.5,0000.0,0009.89,0005.12,0004.68
2023-08-10 22:07:00,SystemResetWarning,0828.8,5.01,000.00,028.9,025.0,000.0,037.1,030.2,19.8,0000.7,0010.04,0005.12,0004.70
2023-08-10 22:08:00,SystemResetWarning,0828.9,5.00,000.00,028.8,025.4,000.0,037.2,030.2,20.3,0000.8,0010.31,0005.12,0004.71
2023-08-10 22:09:00,SystemResetWarning,0828.8,5.00,000.00,028.8,025.8,000.0,037.2,030.3,20.6,0000.8,0010.36,0005.13,0004.71
2023-08-10 22:10:00,SystemResetWarning,0828.7,5.00,000.00,028.8,026.3,000.0,037.2,030.4,20.6,0001.0,0010.39,0005.14,0004.72
2023-08-10 22:11:00,SystemResetWarning,0828.7,5.00,000.00,028.9,026.6,000.0,037.3,030.5,20.5,0001.3,0010.45,0005.17,0004.74
2023-08-10 22:12:00,SystemResetWarning,0828.7,5.00,000.00,028.9,027.0,000.0,037.3,030.6,20.6,0001.4,0010.39,0005.16,0004.75
2023-08-10 22:13:00,SystemResetWarning,0828.8,4.99,000.00,028.9,027.3,000.0,037.3,030.7,20.5,0001.1,0009.76,0005.16,0004.77
2023-08-10 22:14:00,SystemResetWarning,0828.7,4.99,000.00,029.0,027.5,000.0,037.3,030.7,20.4,0000.2,0009.20,0005.21,0004.80
2023-08-10 22:15:00,SystemResetWarning,0828.7,4.99,000.00,029.0,027.7,000.0,037.4,030.8,20.4,0000.0,0008.85,0005.23,0004.81
2023-08-10 22:16:00,SystemResetWarning,0828.7,4.99,000.00,029.0,027.3,000.0,037.3,030.8,20.3,0000.0,0008.96,0005.29,0004.83
2023-08-10 22:17:00,SystemResetWarning,0828.7,5.01,000.00,029.0,025.4,000.0,037.2,030.3,20.0,0000.0,0009.33,0005.33,0004.84
2023-08-10 22:18:00,SystemResetWarning,0828.7,5.00,000.00,028.9,024.6,000.0,037.1,030.2,19.7,0000.2,0009.71,0005.38,0004.85
2023-08-10 22:19:00,SystemResetWarning,0828.6,5.02,000.00,028.8,024.9,000.0,037.1,030.1,19.7,0000.0,0010.00,0005.40,0004.87
2023-08-10 22:20:00,SystemResetWarning,0828.6,4.99,000.00,028.8,025.3,000.0,037.1,030.1,19.9,0000.8,0010.08,0005.44,0004.87
2023-08-10 22:21:00,SystemResetWarning,0828.6,5.00,000.00,028.8,025.8,000.0,037.2,030.2,20.2,0000.0,0010.41,0005.45,0004.86
2023-08-10 22:22:00,SystemResetWarning,0828.6,5.00,000.00,028.8,026.2,000.0,037.2,030.4,20.0,0000.0,0010.48,0005.41,0004.84
2023-08-10 22:23:00,SystemResetWarning,0828.6,5.00,000.00,028.8,026.6,000.0,037.2,030.5,19.8,0000.0,0010.34,0005.41,0004.83
2023-08-10 22:24:00,SystemResetWarning,0828.6,5.00,000.00,028.8,027.0,000.0,037.2,030.5,19.7,0000.0,0010.07,0005.40,0004.80
2023-08-10 22:25:00,SystemResetWarning,0828.6,4.99,000.00,028.9,027.2,000.0,037.3,030.6,19.9,0000.0,0010.40,0005.34,0004.76
2023-08-10 22:26:00,SystemResetWarning,0828.6,5.01,000.00,028.9,027.5,000.0,037.3,030.7,19.9,0000.0,0011.28,0005.31,0004.72
2023-08-10 22:27:00,SystemResetWarning,0828.6,5.01,000.00,029.0,027.7,000.0,037.3,030.8,19.6,0000.0,0011.68,0005.23,0004.66
2023-08-10 22:28:00,SystemResetWarning,0828.5,4.99,000.00,029.0,027.8,000.0,037.4,030.8,19.2,0000.0,0011.88,0005.18,0004.60
2023-08-10 22:29:00,SystemResetWarning,0828.5,4.98,000.00,029.1,027.0,000.0,037.3,030.7,19.2,0000.0,0011.71,0005.09,0004.52
2023-08-10 22:30:00,SystemResetWarning,0828.5,5.00,000.00,029.0,025.1,000.0,037.2,030.4,19.1,0000.0,0011.40,0005.00,0004.43
2023-08-10 22:31:00,SystemResetWarning,0828.5,5.01,000.00,028.9,024.7,000.0,037.1,030.3,19.2,0000.0,0011.12,0004.87,0004.35
2023-08-10 22:32:00,SystemResetWarning,0828.5,5.01,000.00,028.9,025.0,000.0,037.1,030.2,19.4,0000.0,0011.02,0004.76,0004.27
2023-08-10 22:33:00,SystemResetWarning,0828.5,5.00,000.00,028.8,025.4,000.0,037.1,030.2,19.7,0000.0,0011.09,0004.71,0004.21
2023-08-10 22:34:00,SystemResetWarning,0828.6,5.00,000.00,028.8,025.9,000.0,037.2,030.3,19.9,0000.0,0011.04,0004.63,0004.13
2023-08-10 22:35:00,SystemResetWarning,0828.7,5.00,000.00,028.8,026.3,000.0,037.2,030.4,20.2,0000.0,0010.97,0004.55,0004.07
2023-08-10 22:36:00,SystemResetWarning,0828.6,5.00,000.00,028.8,026.7,000.0,037.2,030.5,20.5,0000.0,0010.52,0004.48,0004.01
2023-08-10 22:37:00,SystemResetWarning,0828.6,5.00,000.00,028.9,027.0,000.0,037.3,030.6,20.5,0000.0,0009.72,0004.43,0003.95
2023-08-10 22:38:00,SystemResetWarning,0828.6,5.00,000.00,028.9,027.3,000.0,037.3,030.7,20.4,0000.0,0008.94,0004.37,0003.91
2023-08-10 22:39:00,SystemResetWarning,0828.6,4.99,000.00,029.0,027.6,000.0,037.3,030.7,20.4,0000.0,0008.53,0004.33,0003.88
2023-08-10 22:40:00,SystemResetWarning,0828.6,5.00,000.00,029.0,027.8,000.0,037.3,030.8,20.3,0000.0,0008.03,0004.30,0003.87
2023-08-10 22:41:00,SystemResetWarning,0828.6,4.99,000.00,029.1,027.4,000.0,037.3,030.8,20.2,0000.0,0007.84,0004.27,0003.85
2023-08-10 22:42:00,SystemResetWarning,0828.6,5.00,000.00,029.0,025.6,000.0,037.2,030.5,20.2,0000.0,0008.31,0004.29,0003.84
2023-08-10 22:43:00,SystemResetWarning,0828.6,5.00,000.00,028.9,024.6,000.0,037.1,030.2,20.3,0000.0,0008.16,0004.30,0003.83
2023-08-10 22:44:00,SystemResetWarning,0828.7,5.02,000.00,028.9,024.9,000.0,037.1,030.1,19.9,0000.0,0008.03,0004.26,0003.82
2023-08-10 22:45:00,SystemResetWarning,0828.7,5.00,000.00,028.8,025.3,000.0,037.1,030.1,20.3,0000.0,0008.33,0004.23,0003.80
2023-08-10 22:46:00,SystemResetWarning,0828.6,5.00,000.00,028.8,025.7,000.0,037.2,030.2,20.3,0000.0,0008.65,0004.22,0003.78
2023-08-10 22:47:00,SystemResetWarning,0828.6,5.00,000.00,028.8,026.2,000.0,037.2,030.3,20.0,0000.0,0008.75,0004.21,0003.75
2023-08-10 22:48:00,SystemResetWarning,0828.6,4.99,000.00,028.8,026.6,000.0,037.2,030.4,20.0,0000.0,0009.55,0004.16,0003.72
2023-08-10 22:49:00,SystemResetWarning,0828.6,5.00,000.00,028.8,026.9,000.0,037.2,030.5,20.1,0000.0,0009.82,0004.15,0003.71
2023-08-10 22:50:00,SystemResetWarning,0828.6,5.01,000.00,028.9,027.2,000.0,037.3,030.6,19.7,0000.0,0009.75,0004.12,0003.69
2023-08-10 22:51:00,SystemResetWarning,0828.6,5.00,000.00,028.9,027.4,000.0,037.3,030.7,19.3,0000.0,0009.56,0004.05,0003.66
2023-08-10 22:52:00,SystemResetWarning,0828.6,4.99,000.00,028.9,027.6,000.0,037.3,030.7,18.4,0000.0,0009.45,0004.05,0003.64
2023-08-10 22:53:00,SystemResetWarning,0828.6,4.99,000.00,029.0,027.8,000.0,037.4,030.8,17.7,0000.0,0009.04,0004.05,0003.63
2023-08-10 22:54:00,SystemResetWarning,0828.6,4.98,000.00,029.0,027.8,000.0,037.4,030.8,17.4,0000.0,0009.34,0004.05,0003.63
2023-08-10 22:55:00,SystemResetWarning,0828.6,5.00,000.00,029.0,026.2,000.0,037.3,030.6,17.3,0000.0,0009.20,0004.04,0003.63
2023-08-10 22:56:00,SystemResetWarning,0828.6,5.00,000.00,028.9,024.8,000.0,037.1,030.2,17.6,0000.0,0008.83,0004.05,0003.63
2023-08-10 22:57:00,SystemResetWarning,0828.6,5.01,000.00,028.9,024.9,000.0,037.1,030.2,17.7,0000.0,0008.49,0004.05,0003.64
2023-08-10 22:58:00,SystemResetWarning,0828.6,5.02,000.00,028.8,025.2,000.0,037.1,030.1,17.5,0000.0,0008.35,0004.04,0003.65
2023-08-10 22:59:00,SystemResetWarning,0828.6,4.99,000.00,028.8,025.7,000.0,037.2,030.2,17.9,0000.0,0007.68,0004.06,0003.67
